Regional Weather Roundup
Issued by NWS

Home | Current Version | Previous Version | Graphics & Text | Print | Product List | Glossary On
Versions: 1 2 3 4 5 6 7 8 9 10 11 12 13 14 15 16 17 18 19 20 21 22 23 24 25 26 27 28 29 30 31 32 33 34 35 36 37 38 39 40 41 42 43 44 45 46 47 48 49 50
000
ASUS45 KPSR 150410
RWRAZ

ARIZONA HOURLY REGIONAL WEATHER ROUNDUP
NATIONAL WEATHER SERVICE PHOENIX AZ
900 PM MST THU DEC 14 2017

NOTE: FAIR INDICATES FEW OR NO CLOUDS BELOW 12,000 FEET WITH NO
SIGNIFICANT WEATHER AND/OR OBSTRUCTIONS TO VISIBILITY.

AZZ001>003-036-150500-
NORTHWEST ARIZONA

CITY           SKY/WX    TMP DP  RH WIND       PRES   REMARKS
BULLHEAD CITY  CLEAR     66  18  15 N23       30.17R
KINGMAN        CLEAR     44  17  33 E12       30.25R
$$

AZZ004>008-015-016-018-150500-
NORTH CENTRAL ARIZONA

CITY           SKY/WX    TMP DP  RH WIND       PRES   REMARKS
GRAND CANYON   PTCLDY    20   3  48 NE5       30.33R WCI  13
WILLIAMS       CLEAR     30   9  40 E8G16     30.27S WCI  23
PRESCOTT       CLEAR     39  12  33 NW9       30.24R WCI  33
FLAGSTAFF      CLEAR     35   5  28 NE6       30.27R WCI  30
PAYSON         CLEAR     46  14  27 NE7       30.20R
PAGE           PTCLDY    41  13  31 S6        30.31R
$$

AZZ009>014-017-150500-
NORTHEAST ARIZONA

CITY           SKY/WX    TMP DP  RH WIND       PRES   REMARKS
WINSLOW        CLEAR     39  14  36 NW9       30.28R WCI  33
SAINT JOHNS    CLEAR     35  18  49 NE5       30.24R WCI  31
WINDOW ROCK    CLEAR     25  13  60 CALM      30.26R
SHOW LOW       CLEAR     28  14  54 E6        30.26R WCI  22
$$

AZZ540-542>544-546-548-150500-
GREATER PHOENIX AREA

CITY           SKY/WX    TMP DP  RH WIND       PRES   REMARKS
PHOENIX        CLEAR     68  24  19 N8        30.05R
BUCKEYE        CLEAR     64  18  16 NE14      30.06R
LUKE AFB       CLEAR     65  20  18 N18       30.05R
DEER VALLEY    CLEAR     64  18  17 N13       30.06R
SCOTTSDALE     CLEAR     65  24  21 N13       30.08R
MESA-GATEWAY   CLEAR     64  21  19 N13       30.05R
CHANDLER       CLEAR     66  21  18 N6        30.05R
$$

AZZ539-553-150500-
SOUTHWEST MARICOPA COUNTY AND PINAL COUNTY

CITY           SKY/WX    TMP DP  RH WIND       PRES   REMARKS
CASA GRANDE    NOT AVBL
GILA BEND      CLEAR     55   7  14 SE2       30.04R
$$

AZZ503-504-507>509-150500-
SOUTHEAST ARIZONA

CITY           SKY/WX    TMP DP  RH WIND       PRES   REMARKS
TUCSON         CLEAR     53  19  26 S3        30.06R
DAVIS-MONTHAN  CLEAR     50  16  26 S9        30.04R
NOGALES        CLEAR     50  16  25 CALM      30.06R
SIERRA VISTA   CLEAR     49  12  23 CALM      30.11R
DOUGLAS        CLEAR     50  34  54 E7        30.10R
SAFFORD        CLEAR     46  14  27 NE6       30.08R
$$

AZZ532-150500-
SOUTHWEST ARIZONA

CITY           SKY/WX    TMP DP  RH WIND       PRES   REMARKS
YUMA           CLEAR     66  21  18 N13       30.06R
$$

CAZ041-043-047-048-061-525>527-560>570-150500-
SOUTHERN CALIFORNIA

CITY           SKY/WX    TMP DP  RH WIND       PRES   REMARKS
DOWNTOWN L.A.  CLEAR     60  40  47 CALM      30.05R
L.A. AIRPORT   PTCLDY    62  52  69 SE8       30.05R
SAN DIEGO      PTCLDY    60  41  49 CALM      30.06R
BURBANK        CLEAR     76   2   5 N9        30.06R
ONTARIO        PTCLDY    78  -6   3 S7G21     30.06S
RIVERSIDE      PTCLDY    71  14  11 NE7       30.09R
PALM SPRINGS   CLEAR     72  14  11 NE7       30.15R
EL CENTRO NAS  CLEAR     57  25  29 NW6       30.10R
IMPERIAL       CLEAR     61  25  25 NW7       30.07R
BLYTHE         CLEAR     67  18  15 N24       30.08S
NEEDLES        CLEAR     65  18  16 N16       30.16S
$$

NVZ020-UTZ003-150500-
SOUTHERN NEVADA-UTAH

CITY           SKY/WX    TMP DP  RH WIND       PRES   REMARKS
LAS VEGAS      PTCLDY    54  21  27 N6        30.25R
SALT LAKE CITY PTCLDY    31  25  78 SE7       30.42F WCI  24
$$

NMZ009-TXZ055-150500-
NEW MEXICO-WEST TEXAS

CITY           SKY/WX    TMP DP  RH WIND       PRES   REMARKS
ALBUQUERQUE    PTCLDY    37  14  38 VRB3      30.25R
EL PASO        MOCLDY    46  21  37 E8        30.19R
$$


........................KEY........................
SKY/WX - SKY CONDITION/WEATHER
TMP    - TEMPERATURE IN FAHRENHEIT
DP     - DEW POINT IN FAHRENHEIT
RH     - RELATIVE HUMIDITY IN PERCENT
WIND   - DIRECTION AND SPEED IN MILES PER HOUR (MPH)
VRB    - VARIABLE WIND DIRECTION
PRES   - MEAN SEA LEVEL PRESSURE IN INCHES OF MERCURY
         F - FALLING PRESSURE   R - RISING PRESSURE
         S - STEADY PRESSURE
VSB    - VISIBILITY IN MILES
HX     - HEAT INDEX IN FAHRENHEIT
WCI    - WIND CHILL INDEX IN FAHRENHEIT
TC     - TEMPERATURE IN CELSIUS WHICH IS ALSO KNOWN AS
         TEMPERATURE IN CENTIGRADE
AFB    - AIR FORCE BASE
         LUKE AFB IS LUKE AIR FORCE BASE
         DAVIS-MONTHAN IS DAVIS-MONTHAN AIR FORCE BASE
NAS    - NAVAL AIR STATION
         EL CENTRO NAS IS EL CENTRO NAVAL AIR STATION
N/A    - NOT AVAILABLE




USA.gov is the U.S. government's official web portal to all federal, state and local government web resources and services.